Location: Naalehu
(19.0640°N, 155.5860°W)
Time: 14:46:13
(UTC-10:00)

Tiangong 2 - Visible Passes

Search period start: 19 July 2019 00:00
Search period end: 29 July 2019 00:00
Orbit: 185 x 376 km, 42.8° (Epoch: 19 July)

Date Brightness Start Highest point End Pass type
(mag) Time Alt. Az. Time Alt. Az. Time Alt. Az.
23 Jul 3.6 20:41:40 10° N 20:42:46 15° N 20:42:46 15° N visible
24 Jul 2.9 20:40:20 10° NNW 20:42:03 25° N 20:42:03 25° N visible
25 Jul 2.3 20:39:00 10° NW 20:41:02 39° NW 20:41:02 39° NW visible
26 Jul 2.5 20:37:39 10° WNW 20:39:45 31° WSW 20:39:45 31° WSW visible
27 Jul 3.4 20:36:26 10° W 20:38:10 16° SW 20:38:10 16° SW visible
